Regional Weather Roundup
Issued by NWS Pendleton, OR

Home | Current Version | Previous Version | Text Only | Print | Product List | Glossary On
Versions: 1 2 3 4 5 6 7 8 9 10 11 12 13 14 15 16 17 18 19 20 21 22 23 24 25 26 27 28 29 30 31 32 33 34 35 36 37 38 39 40 41 42 43 44 45 46 47 48 49 50
000
ASUS46 KPDT 050925
RWRPDT
PENDLETON REGIONAL WEATHER ROUNDUP
NATIONAL WEATHER SERVICE PENDLETON OREGON
200 AM PDT TUE MAY 5 2015

NOTE: FAIR INDICATES FEW OR NO CLOUDS BELOW 12,000 FEET WITH NO
SIGNIFICANT WEATHER AND/OR OBSTRUCTIONS TO VISIBILITY.

# INDICATES UNOFFICIAL STATION AND DATA

WAZ520-051010-
EAST SLOPES OF WASHINGTON CASCADES

CITY            SKY/WX      TMP DP  RH  WIND    PRES   REMARKS
#BULLFROG 2SW   N/A         40  35  82  W6      27.53S
#BUMPING DAM    N/A         41  N/A N/A S7      N/A
#CLE ELUM HS    N/A         44  33  65  NW5     29.87S
#CLE ELUM LAKE  N/A         40  33  76  NW1     29.86R
#CLIFFDEL 2NW   N/A         40  34  79  N2      N/A
#GLENWOOD       N/A         46  35  65  SW5     29.93S
#MANASTASH CYN  N/A         41  31  67  CALM    29.89R
#NELSON         N/A         44  37  76  CALM    29.92S
#NELSON 3SW     N/A         39  34  82  CALM    30.09R
#NILE           N/A         43  33  67  CALM    29.16R
#RONALD 2NW     N/A         44  30  58  S1      29.79S
#SNOWDEN        N/A         42  24  48  W6      N/A
#TEANAWAY 4NE   N/A         44  34  68  CALM    N/A
#TROUT LAKE 1NE N/A         45  37  73  NW7     29.95R
$$

WAZ521-051010-
SIMCOE HIGHLANDS

CITY            SKY/WX      TMP DP  RH  WIND    PRES   REMARKS
#BICKLETON HS   N/A         42  27  55  W17     N/A    WCI 34
#CENTERVILLE 4W N/A         46  37  71  NW12    29.71S WCI 40
#CENTERVILLE 1SWN/A         45  35  68  W10     29.92R
#GOLDENDALE     N/A         47  38  71  W7      N/A
#GOLDENDALE 1NE N/A         47  28  47  SW2     N/A
#GOLDENDALE 5WNWN/A         46  35  65  W7      29.94R
#GOODNOE HILLS  N/A         50  38  63  W18     N/A
#LYLE 6NE       N/A         47  39  74  SW7     29.94R
$$

WAZ026-051010-
KITTITAS VALLEY

CITY            SKY/WX      TMP DP  RH  WIND    PRES   REMARKS
ELLENSBURG AP   CLEAR       46  34  63  W14     29.91R WCI 40
YTC-OPS AREA    CLEAR       40  34  79  W25G35  29.84  WCI 29
#ELLENSBURG CWU N/A         45  35  68  N10     29.84R
#ELLENSBURG 3NE N/A         44  35  70  NW7     29.92R
#ELLENSBURG 1E  N/A         45  33  63  NW1     N/A
#KITTITAS 4N    N/A         44  34  68  N6      28.22R
#KITTITAS 3S    N/A         42  37  82  CALM    29.89R
#THORP 6N       N/A         43  34  70  W15G26  29.89R WCI 36
$$

WAZ027-051010-
YAKIMA VALLEY

CITY            SKY/WX      TMP DP  RH  WIND    PRES   REMARKS
SUNNYSIDE AP    PTCLDY      46  34  63  CALM    29.93R
YAKIMA AIRPORT  CLEAR       51  33  50  W7      29.92R
#DONALD 2NE     N/A         48  26  42  CALM    28.77R
#GRANDVIEW      N/A         53  33  46  CALM    29.93R
#MABTON         N/A         53  36  52  SW6     29.92R
#NACHES 2SW     N/A         45  32  60  W5      29.89S
#OUTLOOK DOT    N/A         N/A N/A N/A W5      N/A
#SELAH 8E       N/A         41  29  62  SW8     N/A
#TERRACE HTS    N/A         50  32  50  NW6     29.86R
#TOPPENISH      N/A         52  36  54  CALM    29.82R
#WAPATO 4NE     N/A         48  26  42  CALM    28.77R
#WEST VALLEY    N/A         51  33  50  S1      29.87R
#W YAKIMA       N/A         51  32  48  W7      29.88R
#WHITE SWAN 5E  N/A         50  35  56  W6      29.91R
$$

WAZ028-051010-
LOWER COLUMBIA BASIN...WASHINGTON

CITY            SKY/WX      TMP DP  RH  WIND    PRES   REMARKS
PASCO           PTCLDY      52  40  63  SW10    29.93R
RICHLAND AWOS   PTCLDY      54  41  61  MISG    29.93R
#BASIN CITY 5SW N/A         48  36  63  SW1     29.92R
#BENTON CITY    N/A         48  34  58  CALM    29.83R
#CONNELL 5N     N/A         43  34  70  CALM    29.89R
#CONNELL 5NW    N/A         45  36  70  W3      29.85R
#ELTOPIA 6NW    N/A         49  37  63  S6      28.88R
#KAHLOTUS       N/A         48  36  63  W18     29.89R WCI 41
#KENNEWICK      N/A         40  35  82  W6      27.53S
#KENNEWICK 3S   N/A         49  40  71  N7      29.89S
#PASCO-BROADMOORN/A         54  41  61  W7      29.83R
#PATERSON       N/A         52  43  71  W3      29.93R
#PROSSER        N/A         53  32  45  SW2     29.91R
#SAGEMOOR 2W    N/A         49  41  74  CALM    29.75S
#TOUCHET 2S     N/A         53  40  61  S8      29.91S
#WEST PASCO     N/A         54  39  57  W1      29.91R
$$

WAZ029-051010-
FOOTHILLS OF THE BLUES...WASHINGTON

CITY            SKY/WX      TMP DP  RH  WIND    PRES   REMARKS
WALLA WALLA AP  CLEAR       53  37  54  S10     29.95S
#DAYTON SCHOOL  N/A         52  33  48  S8      29.95R
#LOWDEN 2SE     N/A         55  41  59  W13     29.91S
#PLEASANT VIEW 1N/A         45  37  73  S7      29.92R
#PRESCOTT       N/A         52  39  61  SW1     29.90R
#SUDBURY        N/A         55  N/A N/A CALM    N/A
#WHITMAN COLLEGEN/A         53  38  57  SE5     29.97S
#WAITSBURG 5S   N/A         48  37  65  S9      30.00R
#WAITSBURG 8N   N/A         48  19  31  S8      29.74F
#WALLA WALLA 5E N/A         52  39  61  S14     N/A
#WHITMAN MISSIONN/A         53  40  61  S1      29.95R
$$

WAZ030-051010-
BLUE MOUNTAINS...WASHINGTON

CITY            SKY/WX      TMP DP  RH  WIND    PRES   REMARKS
#DIXIE 5SE      N/A         45  32  60  SW12    29.89R WCI 39
$$

ORZ009-041-WAZ024-051010-
COLUMBIA RIVER GORGE

CITY            SKY/WX      TMP DP  RH  WIND    PRES   REMARKS
HOOD RIVER AP   MOCLDY      50  41  71  NW10    30.00R
THE DALLES AP   PTCLDY      53  40  61  NW18G26 29.98R
#ARLINGTON AIRPON/A         51  38  61  W20     29.88
#ARLINGTON HS   N/A         54  39  57  N10     29.86R
#CELILO DOT     N/A         54  38  55  SW6     N/A
#MOSIER 1S      N/A         49  35  58  NW6     29.97S
#MURDOCK        N/A         54  44  69  W13     30.00R
#RUFUS DOT      N/A         56  38  51  W14     N/A

$$

ORZ510-051010-
NORTH CENTRAL OREGON

CITY            SKY/WX      TMP DP  RH  WIND    PRES   REMARKS
#CHENOWITH 1W   N/A         45  40  82  NW26    N/A    WCI 36
#COW CYN RST AREN/A         44  32  62  CALM    N/A
#DUFUR 9E       N/A         43  39  86  NW3     29.99R
#GRASS VALLEY 1SN/A         41  36  82  CALM    29.97R
#KENT DOT       N/A         41  32  70  SW8     N/A
#MAUPIN SCHOOL  N/A         53  36  52  W14     29.99S
#MORO SCHOOL    N/A         66  38  36  CALM    30.18S
#SHANIKO 5WSW   N/A         41  30  65  W6      N/A
#SHANIKO 4NW    N/A         40  32  73  W6      29.96S
#TYGH VALLEY 2NEN/A         52  37  56  SW10    29.95R
#WAPANITIA AIRPON/A         48  37  65  NW2     29.97R
#WASCO DOT      N/A         47  40  76  W3      N/A
#WASCO AIRPORT  N/A         46  39  76  SW5     N/A
#WASCO 5NE      N/A         45  39  79  SW2     29.95S
$$

ORZ511-051010-
CENTRAL OREGON

CITY            SKY/WX      TMP DP  RH  WIND    PRES   REMARKS
BEND AIRPORT    PTCLDY      41  30  65  S6      29.98F
MADRAS AIRPORT  MOCLDY      43  32  65  SW5     29.99S
PRINEVILLE AP   PTCLDY      30  27  88  CALM    29.98S
#BEND 1SW       N/A         42  32  67  W2      N/A
#BEND-AWBREY    N/A         41  31  67  W1      29.89R
#BEND-KIM LN    N/A         42  33  70  SW2     29.94S
#CROOKED RVR RANN/A         46  34  63  N5      29.93R
#CULVER         N/A         47  32  56  W6      29.95R
#LAKE BILLY CHINN/A         47   7  19  SW3     30.06S
#POWELL BUTTE 3EN/A         38  32  79  S3      N/A
#POWELL BUTTE   N/A         38  29  70  S1      29.61F
#PRINEVILLE 3N  N/A         34  30  85  E3      29.91R
#WARM SPRINGS   N/A         47  33  58  S2      29.95R

$$


ORZ509-051010-
EAST SLOPES OF OREGON CASCADES

CITY            SKY/WX      TMP DP  RH  WIND    PRES   REMARKS
#BLUE BOX PASS  N/A         36  -13 11  SW3     N/A
#CAMP SHERMAN   N/A         42  32  67  CALM    29.92R
#LA PINE 4NW    N/A         28  23  81  CALM    30.00R
#SISTERS AIRPOR N/A         45  39  79  N6      30.17S
#SISTERS ODOT   N/A         46  N/A N/A S7      N/A
#SISTERS 1NW    N/A         45  32  60  N8      N/A
#SISTERS 3N     N/A         44  28  53  N3      30.01R
#SUNRIVER       N/A         40  32  73  S1      29.82R
#TUMALO 3W      N/A         39  32  76  CALM    29.78R
#WANOGA BUTTE D N/A         33  25  72  W6      N/A

$$

ORZ044-051010-
LOWER COLUMBIA BASIN...OREGON

CITY            SKY/WX      TMP DP  RH  WIND    PRES   REMARKS
HERMISTON       CLEAR       49  38  66  S9      29.96R
#BOARDMAN SCHOOLN/A         53  41  64  SE1     29.97R
#BOARDMAN 8SW   N/A         49  40  71  SW8     29.94R
#ECHO 8SW       N/A         46  37  71  SW6     29.97R
#IONE SCHOOL    N/A         50  35  56  SW6     29.93S
#IRRIGON 4NW    N/A         51  41  68  S8      N/A
#UMATILLA SCHOOLN/A         50  44  80  W1      30.00R
#UMATILLA       N/A         68  35  29  SW8     29.87R
$$

ORZ507-051010-
NORTHERN FOOTHILLS OF THE BLUES

CITY            SKY/WX      TMP DP  RH  WIND    PRES   REMARKS
PENDLETON AIRPT CLEAR       50  36  58  W15     29.96R
#ADAMS 3WNW     N/A         45  37  73  SW5     29.95R
#ATHENA         N/A         48  37  65  S1      29.95S
#CAYUSE         N/A         50  37  61  W6      29.93S
#HELIX SCHOOL   N/A         48  38  68  SW15    29.91S WCI 42
#HELIX 3N       N/A         46  36  68  SW14    29.91F WCI 40
#HOLDMAN 6E     N/A         48  37  65  VRB13   29.73R WCI 43
#M-F FERNDALE   N/A         52  37  56  CALM    29.95R
#M-F GROVE ELEM N/A         52  35  52  CALM    29.94S
#M-FREEWATER 5SEN/A         52  37  56  CALM    29.96S
#PENDLETON DNTN N/A         52  29  41  W3      29.96S
#PDT AQUATIC CTRN/A         51  29  42  W3      29.98R
#PENDLETON 5NE  N/A         48  37  65  CALM    29.93R
#PDT SUNRIDGE   N/A         44  35  70  CALM    29.98R
#PENDLETON 7NW  N/A         50  36  58  CALM    29.93R
#TUTUILLA       N/A         42  34  73  S1      29.96S
#UMAPINE 2E     N/A         54  41  61  SW7     29.92S
#WESTON SCHOOL  N/A         49  34  56  W7      29.96R

$$

ORZ508-051010-
SOUTHERN FOOTHILLS OF THE BLUES

CITY            SKY/WX      TMP DP  RH  WIND    PRES   REMARKS
LEXINGTON       CLEAR       46  36  68  S3      29.99R
#AJAX           N/A         43  32  65  SW6     29.91S
#CONDON SCHOOL  N/A         43  34  70  CALM    29.93S
#CONDON 5W      N/A         41  31  67  W12     29.93S WCI 34
#FOSSIL SCHOOL  N/A         37  30  75  CALM    29.95S
#HEPPNER EOC    N/A         47  33  58  SW7     29.87R
#HEPPNER 4NE    N/A         41  32  70  CALM    29.92R
#LEXINGTON 2SE  N/A         42  32  67  CALM    29.94R
#MIKKALO        N/A         46  37  71  W7      29.97R
#OLEX 4N        N/A         48  40  74  W14     29.95R WCI 42
#RUGGS 5NE      N/A         42  32  67  SW5     30.14S
#RUGGS 2SW      N/A         43  34  70  W6      29.93S

$$

ORZ502-503-051010-
BLUE MOUNTAINS

CITY            SKY/WX      TMP DP  RH  WIND    PRES   REMARKS
MEACHAM         CLEAR       35  30  82  CALM    29.96F
#BATTLE MTN DOT N/A         37  37  100 CALM    N/A
#HEPPNER 15SE   N/A         37  32  82  CALM    29.85S
#LADD CYN SMT   N/A         44  31  60  W10     N/A
#LADD CREEK ODOTN/A         47  20  34  CALM    N/A
#LONG CREEK HS  N/A         36  34  92  CALM    29.91F
#N POWDER DOT   N/A         46  35  65  N21     N/A    WCI 38
#PIKES PEAK     N/A         43  34  70  SW25    27.99S WCI 33
#TOLLGATE       N/A         35  31  85  S2      29.89F
#TROY SCHOOL    N/A         58  31  36  SW5     29.71S
#UKIAH          N/A         32  29  89  CALM    29.99R
#WESTON 4E      N/A         42  34  73  S6      29.85R
$$

ORZ505-051010-
JOHN DAY BASIN

CITY            SKY/WX      TMP DP  RH  WIND    PRES   REMARKS
JOHN DAY        CLEAR       45  33  63  W8      29.95S
#JOHN DAY KJDY  N/A         50  33  52  W1      30.03F
#DAYVILLE SCHOOLN/A         48  32  54  CALM    29.93S
#MITCHELL       N/A         39  33  79  CALM    30.11S
#MONUMENT HS    N/A         44  33  65  CALM    29.97R
#MT. VERNON 5SE N/A         44  32  62  W1      29.90S
#WINLOCK        N/A         36  30  79  CALM    30.05S
$$

ORZ506-051010-
OCHOCO AND JOHN DAY HIGHLANDS

CITY            SKY/WX      TMP DP  RH  WIND    PRES   REMARKS
#BUCK CREEK DOT N/A         42  42  100 W8      N/A
#HORSE RIDGE DO N/A         29  23  78  S6      N/A
#KEYES SMT DOT  N/A         39  30  70  NW6     N/A
#PAULINA SCHOOL N/A         49  29  46  CALM    29.93S
#PINE MTN OBS   N/A         40   3  21  NW2     N/A
#SENECA         N/A         40  N/A N/A CALM    N/A
#SENECA 9NW     N/A         36  31  82  CALM    29.83F
$$

ORZ049-051010-
GRANDE RONDE VALLEY

CITY            SKY/WX      TMP DP  RH  WIND    PRES   REMARKS
LA GRANDE       CLEAR       46  27  47  W16     29.94R WCI 39
#COVE           N/A         44  36  73  CALM    29.96R
#COVE SCHOOL    N/A         43  33  67  CALM    29.93R
#ELGIN 3N       N/A         48  29  47  CALM    29.93R
#ELGIN 1E       N/A         49  32  52  CALM    N/A
#IMBLER SCHOOL  N/A         55  29  37  N2      29.92R
#ISLAND CITY 4N N/A         47  44  89  CALM    30.05R
#LADD CYN DOT   N/A         48  34  58  NW7     N/A
#LA GRANDE ELEM N/A         47  34  60  W7      29.98R
#UNION 1S       N/A         48  34  58  NW6     29.81R
$$

ORZ050-051010-
WALLOWA COUNTY

CITY            SKY/WX      TMP DP  RH  WIND    PRES   REMARKS
JOSEPH AIRPORT  N/A         45  30  55  CALM    29.95S
#ENTERPRISE HS  N/A         46  32  58  NW1     29.96R
#IMNAHA SCHOOL  N/A         58  36  44  S2      29.88R
#IMNAHA 10S     N/A         55  32  41  SW8     29.91R
#JOSEPH 3N      N/A         44  27  51  CALM    29.97R
#JOSEPH 3W      N/A         41  31  67  CALM    29.80R
#LOSTINE        N/A         44  31  60  NW1     29.68R
#MT HOWARD 8000 N/A         40  31  70  CALM    29.99F
#PROMISE 1S     N/A         45  29  53  E8      29.92F
#SHEEP RDG 7000 N/A         40  31  70  CALM    29.75S
#WALLOWA SCHOOL N/A         48  31  51  CALM    30.81R



$$



USA.gov is the U.S. government's official web portal to all federal, state and local government web resources and services.